Effective Sunday, March 17, 2024, the National Weather Service National Data Buoy Center will discontinue its Dial-A-Buoy Interactive Voice Response system. For more information, see Service Change Notice 24-06 (PDF).

Station CFWM1 - 8411060 - Cutler Farris Wharf, ME Image indicating link to RSS feed of recent meteorological observations for station CFWM1


Conditions at CFWM1 as of
(3:30 pm EST)
2030 GMT on 02/27/2024:
     

Click on the graph icon in the table below to see a time series plot of the last five days of that observation.

5-day plot - Wind Speed Wind Speed (WSPD): 0.0 kts
5-day plot - Wind Gust Wind Gust (GST): 2.9 kts
5-day plot - Atmospheric Pressure Atmospheric Pressure (PRES):30.11 in
5-day plot - Air Temperature Air Temperature (ATMP): 38.7 °F
5-day plot - Wind Speed at 10 Meters Wind Speed at 10 meters (WSPD10M): 0.0 kts
5-day plot - Wind Speed at 20 Meters Wind Speed at 20 meters (WSPD20M): 0.0 kts
5-day plot -  Wind Speed, Wind Gust and Atmospheric Pressure Combined plot of Wind Speed, Gust, and Air Pressure
NOS Water Level Observation Network Water Level
Previous observations
TIME
(EST)
5-day plot - Wind Direction
WDIR
 
5-day plot - Wind Speed
WSPD
kts
5-day plot - Wind Gust
GST
kts
5-day plot - Wave Height
WVHT
ft
5-day plot - Dominant Wave Period
DPD
sec
5-day plot - Average Wave Period
APD
sec
5-day plot - Mean Wave Direction
MWD
 
5-day plot - Atmospheric Pressure
PRES
in
5-day plot - Pressure Tendency
PTDY
in
5-day plot - Air Temperature
ATMP
°F
5-day plot - Water Temperature
WTMP
°F
5-day plot - Dew Point
DEWP
°F
5-day plot - Salinity
SAL
psu
5-day plot - Visibility
VIS
nmi
5-day plot - Tide (above MLLW)
TIDE
ft
2024-02-27 03:24 pmESE 1.0 2.9----30.11- 38.8-----
2024-02-27 03:18 pm- 0.0 2.9----30.11- 39.0-----
2024-02-27 03:12 pm S 1.9 6.0----30.11- 38.7-----
2024-02-27 03:06 pmSSW 4.1 8.0----30.11- 38.5-----
2024-02-27 03:00 pmSSW 7.0 8.0----30.11-0.04 38.3-----
2024-02-27 02:54 pmSSW 6.0 8.9----30.11- 38.5-----
2024-02-27 02:48 pmSSW 7.0 8.9----30.11- 38.7-----
2024-02-27 02:42 pmSSW 4.1 8.9----30.11- 38.7-----
2024-02-27 02:36 pm S 4.1 8.0----30.11- 38.8-----
2024-02-27 02:30 pmSSW 6.0 8.0----30.12- 38.7-----
2024-02-27 02:24 pmSSW 7.0 8.0----30.12- 38.7-----
2024-02-27 02:18 pmSSW 7.0 8.0----30.12- 38.8-----
2024-02-27 02:12 pm SW 7.0 11.1----30.12- 38.8-----
2024-02-27 02:06 pmWSW 6.0 8.0----30.12- 38.8-----
2024-02-27 02:00 pm SW 6.0 8.0----30.12-0.04 38.8-----
2024-02-27 01:54 pm SW 6.0 11.1----30.12- 38.8-----
2024-02-27 01:48 pmSSW 5.1 8.0----30.12- 38.8-----
2024-02-27 01:42 pm SW 6.0 8.9----30.13- 38.7-----
2024-02-27 01:36 pmSSW 6.0 8.9----30.13- 38.7-----
2024-02-27 01:30 pmSSW 6.0 9.9----30.13- 38.7-----
2024-02-27 01:24 pmSSW 7.0 11.1----30.13- 38.7-----
2024-02-27 01:18 pmSSW 7.0 9.9----30.13- 38.5-----
2024-02-27 01:12 pm SW 8.0 12.0----30.13- 38.5-----
2024-02-27 01:06 pmSSW 8.0 12.0----30.13- 38.3-----
2024-02-27 01:00 pmSSW 8.0 12.0----30.14-0.04 38.5-----
2024-02-27 12:54 pm SW 7.0 12.0----30.14- 38.7-----
2024-02-27 12:48 pmSSW 8.0 12.0----30.14- 38.7-----
2024-02-27 12:42 pm SW 7.0 9.9----30.14- 38.7-----
2024-02-27 12:36 pm SW 7.0 9.9----30.14- 38.7-----
2024-02-27 12:30 pm SW 7.0 9.9----30.14- 38.5-----
2024-02-27 12:24 pmSSW 6.0 12.0----30.14- 38.7-----
2024-02-27 12:18 pmSSW 8.0 13.0----30.14- 38.7-----
2024-02-27 12:12 pmSSW 8.9 13.0----30.15- 38.7-----
2024-02-27 12:06 pmSSW 9.9 13.0----30.15- 38.7-----
2024-02-27 12:00 pmSSW 8.9 14.0----30.15-0.02 38.7-----
2024-02-27 11:54 amSSW 9.9 15.0----30.15- 38.7-----
2024-02-27 11:48 am SW 13.0 18.1----30.16- 39.0-----
2024-02-27 11:42 amSSW 12.0 15.9----30.15- 39.6-----
2024-02-27 11:36 amSSW 9.9 12.0----30.16- 39.9-----
2024-02-27 11:30 amSSW 8.0 14.0----30.16- 39.9-----
2024-02-27 11:24 amSSW 11.1 14.0----30.16- 39.9-----
2024-02-27 11:18 amSSW 6.0 12.0----30.16- 40.5-----
2024-02-27 11:12 amSSW 1.9 9.9----30.16- 41.2-----
2024-02-27 11:06 amSSW 2.9 9.9----30.16- 41.2-----
2024-02-27 11:00 amSSW 4.1 8.9----30.16+0.00 41.2-----
2024-02-27 10:54 amSSW 2.9 12.0----30.16- 41.2-----
2024-02-27 10:48 am S 5.1 8.0----30.16- 41.7-----
2024-02-27 10:42 amSSE 2.9 9.9----30.17- 41.7-----
2024-02-27 10:36 amESE 1.9 7.0----30.17- 41.7-----
2024-02-27 10:30 amSSE 1.9 5.1----30.17- 41.9-----
2024-02-27 10:24 am N 1.9 5.1----30.17- 42.3-----
2024-02-27 10:18 am- 0.0 4.1----30.17- 42.3-----
2024-02-27 10:12 amSSE 1.0 4.1----30.17- 41.9-----
2024-02-27 10:06 am- 0.0 8.0----30.17- 41.9-----
2024-02-27 10:00 amNNE 1.0 5.1----30.17+0.01------
2024-02-27 09:54 am E 1.0 2.9----30.17-------
2024-02-27 09:48 amSSW 1.0 5.1----30.16- 41.4-----
2024-02-27 09:42 am E 1.9 4.1----30.17- 41.5-----
2024-02-27 09:36 amENE 1.0 4.1----30.17- 41.2-----
2024-02-27 09:30 am NE 1.0 4.1----30.17- 41.2-----
2024-02-27 09:24 amENE 1.9 5.1----30.17- 40.8-----
2024-02-27 09:18 am N 1.0 4.1----30.17- 40.8-----
2024-02-27 09:12 amNNE 1.9 4.1----30.17- 40.5-----
2024-02-27 09:06 am N 1.9 5.1----30.17- 40.1-----
2024-02-27 09:00 amNNW 1.0 5.1----30.17+0.02 40.1-----
2024-02-27 08:54 amNNE 1.9 2.9----30.17- 39.9-----
2024-02-27 08:48 amWNW 1.9 5.1----30.17- 39.6-----
2024-02-27 08:42 amESE 1.0 4.1----30.17- 39.4-----
2024-02-27 08:36 am N 1.9 4.1----30.16- 39.2-----
2024-02-27 08:30 amNNE 1.0 2.9----30.16- 39.2-----
2024-02-27 08:24 amNNW 1.0 2.9----30.16- 39.0-----
2024-02-27 08:18 amNNE 1.0 2.9----30.16- 38.7-----
2024-02-27 08:12 am N 1.0 2.9----30.16- 38.1-----
2024-02-27 08:06 am N 1.0 2.9----30.16- 36.9-----
2024-02-27 08:00 am- 0.0 1.9----30.16+0.03 34.7-----
2024-02-27 07:54 am- 0.0 1.9----30.16- 34.3-----
2024-02-27 07:48 am- 0.0 1.0----30.16- 32.5-----
2024-02-27 07:42 am- 0.0 1.0----30.16- 30.2-----
2024-02-27 07:36 am- 0.0 1.9----30.16- 28.9-----
2024-02-27 07:30 am NE 1.9 1.9----30.16- 28.8-----
2024-02-27 07:24 am- 0.0 1.0----30.16- 27.5-----
2024-02-27 07:18 am- 0.0 1.0----30.16- 27.1-----
2024-02-27 07:12 am- 0.0 1.0----30.16- 27.0-----
2024-02-27 07:06 am- 0.0 1.9----30.16- 26.6-----
2024-02-27 07:00 am- 0.0 1.0----30.16+0.04 26.4-----
2024-02-27 06:54 am- 0.0 1.9----30.16- 25.5-----
2024-02-27 06:48 amNNE 1.0 1.9----30.16- 25.0-----
2024-02-27 06:42 am NE 1.0 1.9----30.16- 25.2-----
2024-02-27 06:36 am NE 1.0 4.1----30.16- 25.5-----
2024-02-27 06:30 am NE 2.9 4.1----30.16- 24.3-----
2024-02-27 06:24 am- 0.0 1.9----30.15- 24.1-----
2024-02-27 06:18 amNNE 1.0 4.1----30.15- 23.4-----
2024-02-27 06:12 am NE 1.0 5.1----30.15- 23.4-----
2024-02-27 06:06 am NE 1.9-----30.15- 24.1-----
2024-02-27 06:00 am NE 1.0 4.1----30.15+0.05------
2024-02-27 05:54 am NE 2.9 4.1----30.14-------
2024-02-27 05:48 am- 0.0 1.0----30.14- 25.0-----
2024-02-27 05:42 am- 0.0 1.0----30.14- 25.2-----
2024-02-27 05:36 am- 0.0 1.0----30.14- 25.5-----
2024-02-27 05:30 am- 0.0 2.9----30.14- 25.2-----
2024-02-27 05:24 am NE 1.9 2.9----30.14- 24.8-----
2024-02-27 05:18 amNNE 1.9 1.9----30.14- 25.5-----
2024-02-27 05:12 am- 0.0 1.0----30.14- 25.2-----
2024-02-27 05:06 am- 0.0 2.9----30.14- 24.6-----
2024-02-27 05:00 am NE 2.9 2.9----30.13+0.04 24.8-----
2024-02-27 04:54 amNNE 1.0 2.9----30.13- 25.3-----
2024-02-27 04:48 am NE 1.9 1.9----30.13- 25.0-----
2024-02-27 04:42 amNNE 1.0 1.9----30.13- 25.0-----
2024-02-27 04:36 amNNE 1.9 1.9----30.13- 25.2-----
2024-02-27 04:30 amNNE 1.0 2.9----30.12- 25.0-----
2024-02-27 04:24 amNNE 1.0 1.9----30.12- 24.6-----
2024-02-27 04:18 am NE 1.9 1.9----30.12- 24.4-----
2024-02-27 04:12 amNNE 1.9 2.9----30.12- 25.0-----
2024-02-27 04:06 am NE 2.9 2.9----30.12- 25.3-----
2024-02-27 04:00 am NE 1.9 2.9----30.11+0.02 25.3-----
2024-02-27 03:54 am NE 1.9 2.9----30.11- 24.8-----
2024-02-27 03:48 am NE 1.9 2.9----30.11- 24.8-----
2024-02-27 03:42 am NE 2.9 4.1----30.11- 24.6-----
2024-02-27 03:36 am NE 2.9 4.1----30.11- 25.9-----
2024-02-27 03:30 am- 0.0 1.9----30.11- 24.8-----
2024-02-27 03:24 am- 0.0 1.9----30.10- 25.0-----
2024-02-27 03:18 amNNE 1.9 1.9----30.10- 25.5-----
2024-02-27 03:12 am NE 1.9 1.9----30.10- 25.3-----
2024-02-27 03:06 amNNE 1.0 2.9----30.10- 25.5-----
2024-02-27 03:00 am NE 1.0 1.0----30.10+0.04 25.9-----
2024-02-27 02:54 am- 0.0 2.9----30.10- 25.2-----
2024-02-27 02:48 amNNE 1.0 2.9----30.09- 25.2-----
2024-02-27 02:42 am NE 1.9 2.9----30.09- 25.7-----
2024-02-27 02:36 am- 0.0 1.9----30.09- 26.1-----
2024-02-27 02:30 amENE 1.0 1.9----30.09- 26.1-----
2024-02-27 02:24 am- 0.0 1.9----30.09- 25.7-----
2024-02-27 02:18 amNNE 1.0 1.9----30.09- 26.2-----
2024-02-27 02:12 am- 0.0 2.9----30.09- 26.2-----
2024-02-27 02:06 am NE 1.0 1.0----30.09- 26.6-----
2024-02-27 02:00 am- 0.0 1.0----30.09+0.05 27.0-----
2024-02-27 01:54 am- 0.0 1.0----30.09- 27.0-----
2024-02-27 01:48 am- 0.0 1.0----30.09- 27.3-----
2024-02-27 01:42 am- 0.0 4.1----30.09- 26.4-----
2024-02-27 01:36 amNNE 2.9 5.1----30.09- 26.8-----
2024-02-27 01:30 amNNE 1.9 1.9----30.09- 26.8-----
2024-02-27 01:24 amENE 1.0 1.9----30.09- 27.0-----
2024-02-27 01:18 am- 0.0 1.0----30.09- 27.3-----
2024-02-27 01:12 am- 0.0 1.9----30.09- 27.5-----
2024-02-27 01:06 amENE 1.9 2.9----30.09- 28.0-----
2024-02-27 01:00 am- 0.0 0.0----30.09+0.06 27.1-----
2024-02-27 12:54 am- 0.0 1.9----30.09- 27.1-----
2024-02-27 12:48 amNNE 1.9 2.9----30.09- 28.8-----
2024-02-27 12:42 am NE 1.0 2.9----30.09- 27.3-----
2024-02-27 12:36 am NE 1.0 1.0----30.08- 28.2-----
2024-02-27 12:30 am- 0.0 1.0----30.08- 28.6-----
2024-02-27 12:24 am- 0.0 1.9----30.07- 28.4-----
2024-02-27 12:18 am N 1.0 1.9----30.07- 29.5-----
2024-02-27 12:12 amWNW 1.0 1.9----30.07- 28.9-----
2024-02-27 12:06 am SW 1.0 1.9----30.06- 29.3-----
2024-02-27 12:00 amNNE 1.9 2.9----30.06+0.05 29.3-----
2024-02-26 11:54 pm- 0.0 2.9----30.06- 29.5-----
2024-02-26 11:48 pmNNE 1.9 4.1----30.06- 30.2-----
2024-02-26 11:42 pm N 1.9 2.9----30.06- 30.6-----
2024-02-26 11:36 pm NW 1.0 1.9----30.06- 29.8-----
2024-02-26 11:30 pm- 0.0 1.0----30.05- 29.3-----
2024-02-26 11:24 pm- 0.0 1.0----30.05- 29.5-----
2024-02-26 11:18 pm- 0.0 1.9----30.05- 30.0-----
2024-02-26 11:12 pm N 1.9 1.9----30.05- 30.7-----
2024-02-26 11:06 pmWNW 1.0 2.9----30.05- 30.7-----
2024-02-26 11:00 pm N 1.9 4.1----30.04+0.07 31.3-----
2024-02-26 10:54 pmNNW 2.9 2.9----30.04- 31.6-----
2024-02-26 10:48 pm NW 1.9 2.9----30.04- 31.1-----
2024-02-26 10:42 pmWNW 1.9 2.9----30.04- 30.9-----
2024-02-26 10:36 pm N 2.9 2.9----30.04- 31.6-----
2024-02-26 10:30 pm N 1.9 2.9----30.04- 30.9-----
2024-02-26 10:24 pmWNW 1.9 2.9----30.03- 30.4-----
2024-02-26 10:18 pm NW 1.0 1.9----30.03- 30.4-----
2024-02-26 10:12 pmNNW 1.0 1.9----30.03- 30.6-----
2024-02-26 10:06 pm NW 1.0 1.9----30.03- 30.9-----
2024-02-26 10:00 pm NW 1.9 1.9----30.03+0.10 30.9-----
2024-02-26 09:54 pm- 0.0 1.9----30.03- 30.7-----
2024-02-26 09:48 pm- 0.0 1.9----30.03- 31.5-----
2024-02-26 09:42 pmNNE 1.0 1.9----30.02- 30.9-----
2024-02-26 09:36 pm- 0.0 1.0----30.02- 32.0-----
2024-02-26 09:30 pm- 0.0 1.0----30.02- 32.4-----
2024-02-26 09:24 pm- 0.0 1.0----30.02- 32.4-----
2024-02-26 09:18 pm- 0.0 1.0----30.01- 32.9-----
2024-02-26 09:12 pm- 0.0 1.9----30.01- 33.1-----
2024-02-26 09:06 pm- 0.0 1.0----30.01- 33.4-----
2024-02-26 09:00 pm- 0.0 1.9----30.01+0.10------
2024-02-26 08:54 pm- 0.0 1.9----30.01-------
2024-02-26 08:48 pm- 0.0 1.9----30.01-------
2024-02-26 08:42 pm NW 1.0 1.9----30.00-------
2024-02-26 08:36 pm- 0.0 1.0----30.00-------
2024-02-26 08:30 pm- 0.0 1.0----29.99- 34.7-----
2024-02-26 08:24 pm N 1.0 2.9----29.99- 35.1-----
2024-02-26 08:18 pm N 1.0 1.9----29.98- 35.1-----
2024-02-26 08:12 pm- 0.0 1.0----29.98- 35.2-----
2024-02-26 08:06 pm- 0.0 1.9----29.97- 35.6-----
2024-02-26 08:00 pmWNW 1.0 1.9----29.97+0.08 35.8-----
2024-02-26 07:54 pm- 0.0 1.9----29.96- 36.0-----
2024-02-26 07:48 pm W 1.0 2.9----29.96- 36.3-----
2024-02-26 07:42 pm W 1.9 5.1----29.96- 36.7-----
2024-02-26 07:36 pmWNW 2.9 4.1----29.96- 36.7-----
2024-02-26 07:30 pmWNW 2.9 4.1----29.95-------
2024-02-26 07:24 pmWNW 1.9 4.1----29.95-------
2024-02-26 07:18 pm W 2.9 5.1----29.94- 37.0-----
2024-02-26 07:12 pm W 4.1 7.0----29.94- 37.2-----
2024-02-26 07:06 pm W 4.1 6.0----29.93- 37.2-----
2024-02-26 07:00 pm W 4.1 6.0----29.93+0.07 37.2-----
2024-02-26 06:54 pm W 4.1 6.0----29.93- 37.2-----
2024-02-26 06:48 pm W 2.9 5.1----29.93- 37.2-----
2024-02-26 06:42 pmWNW 2.9 5.1----29.93- 37.2-----
2024-02-26 06:36 pm W 5.1 7.0----29.93- 37.4-----
2024-02-26 06:30 pm W 5.1 8.0----29.92-------
2024-02-26 06:24 pm W 6.0 8.0----29.92-------
2024-02-26 06:00 pm W 6.0 9.9----29.91+0.02 37.6-----
2024-02-26 05:54 pm W 6.0 8.9----29.91- 37.6-----
2024-02-26 05:48 pm W 7.0 8.9----29.91- 37.6-----
2024-02-26 05:42 pm W 5.1 8.0----29.91- 37.6-----
2024-02-26 05:36 pm W 7.0 12.0----29.90- 37.8-----
2024-02-26 05:30 pm W 9.9 14.0----29.89- 37.9-----
2024-02-26 05:24 pm W 11.1 14.0----29.89- 37.9-----
2024-02-26 05:18 pm W 6.0 9.9----29.89- 37.9-----
2024-02-26 05:12 pm W 8.0 13.0----29.89- 37.9-----
2024-02-26 05:06 pm W 8.0 12.0----29.89- 37.9-----
2024-02-26 05:00 pm W 8.0 12.0----29.89+0.02 38.1-----
2024-02-26 04:54 pm W 6.0 11.1----29.88- 38.1-----
2024-02-26 04:48 pm W 8.0 14.0----29.89- 38.1-----
2024-02-26 04:42 pmWSW 11.1 15.0----29.89- 38.1-----
2024-02-26 04:36 pm W 8.9 13.0----29.88- 38.1-----
2024-02-26 04:30 pmWSW 8.9 13.0----29.88- 38.1-----
2024-02-26 04:24 pm W 8.9 11.1----29.88- 38.1-----
2024-02-26 04:18 pmWSW 7.0 13.0----29.87- 38.1-----
2024-02-26 04:12 pmWSW 8.9 12.0----29.87- 38.1-----
2024-02-26 04:06 pm SW 8.9 15.0----29.86- 38.1-----
2024-02-26 04:00 pmWSW 8.0 15.0----29.86-0.02 38.3-----
2024-02-26 03:54 pmWSW 8.9 15.0----29.87- 38.7-----